sat.trackr.live / text

‹ back to catalog

STARLINK-34808

NORAD 65745 · 2025-216M

PAYLOAD ACTIVE UNKNOWN

§ Identity

Operator
Country
US
Launch date
2025-09-25
Launch site
AFETR
Launch vehicle
Mass (kg)
RCS (m²)

Purposes: comms

External: N2YO · Heavens-Above · Gunter

§ Orbital elements

Epoch: 2026-09-20T22:20:06.568512Z

Period
93.85 min
Inclination
53.1581°
Eccentricity
0.0000970
Mean motion
15.34395591 rev/d
Perigee alt
462.1 km
Apogee alt
463.4 km
Semi-major
6,840.9 km
B*
3.7625e-4
RAAN
144.0463°
Arg perigee
75.7445°
Mean anomaly
284.3665°
Rev number
5,643

§ Raw data

STARLINK-348081 65745U 25216M   26263.93063158  .00012355  00000+0  37625-3 0  99982 65745  53.1581 144.0463 0000970  75.7445 284.3665 15.34395591 56439

JSON: /api/v1/satellites/65745 · /tle

For live sub-satellite position, see the globe view (requires WebGL).

§ Visibility from observer

Set your observer location to see the next 7 days of passes ≥ 10°. The values pass through the URL so the page stays shareable.

No JS? Fill the form by hand. The geolocation button needs JavaScript.